Location: Newark
(48.1500°N, 13.1167°E)
Time: 10:23:53
(UTC+00:00)

ISS - Visible Passes

Search period start: 17 September 2021 00:00
Search period end: 27 September 2021 00:00
Orbit: 419 x 423 km, 51.6° (Epoch: 17 September)

Date Brightness Start Highest point End Pass type
(mag) Time Alt. Az. Time Alt. Az. Time Alt. Az.
17 Sep -2.2 18:03:54 10° S 18:06:22 19° SE 18:08:01 14° ESE visible
17 Sep -1.9 19:39:28 10° WSW 19:41:04 26° WSW 19:41:04 26° WSW visible
18 Sep -3.8 18:52:39 10° SW 18:55:59 64° SSE 18:56:29 54° ESE visible
19 Sep -3.3 18:05:56 10° SW 18:09:09 43° SSE 18:11:44 15° E visible
19 Sep -2.0 19:42:39 10° W 19:44:44 33° WNW 19:44:44 33° WNW visible
20 Sep -3.6 18:55:40 10° WSW 18:59:02 68° NNW 18:59:50 47° NE visible
21 Sep -3.8 18:08:44 10° WSW 18:12:07 89° NNW 18:14:51 15° ENE visible
21 Sep -1.7 19:45:55 10° WNW 19:47:51 28° WNW 19:47:51 28° WNW visible
22 Sep -3.0 18:58:55 10° W 19:02:12 47° N 19:02:47 42° NNE visible
23 Sep -3.2 18:11:54 10° W 18:15:13 54° NNW 18:17:40 17° ENE visible
23 Sep -1.3 19:49:07 10° WNW 19:50:39 23° WNW 19:50:39 23° WNW visible
24 Sep -3.0 19:02:09 10° WNW 19:05:24 44° N 19:05:30 44° N visible
25 Sep -2.9 18:15:08 10° WNW 18:18:24 44° N 18:20:19 21° ENE visible
25 Sep -1.0 19:52:10 10° WNW 19:53:19 19° WNW 19:53:19 19° WNW visible
26 Sep -3.0 17:28:06 10° W 17:31:23 47° N 17:34:40 10° ENE visible
26 Sep -3.0 19:05:14 10° WNW 19:08:07 49° NNW 19:08:07 49° NNW visible
